EHI
0 0 0 0 0 0 0 0 0 0 0 0 0 0 0 0 0 0 0 0 0 0 0 0 0 0 0 0 0 0 0 0 0 0 0 0 0 0 0 0 0 0 0 0 0 0 0 0 0
0 0 0 0 0 0 0 0 0 0 0 0 0 0 0 0 0 0 0 0 0 0 0 0 0 0 0 0 0 0 0 0 0 0 0 0 0 0 0 0 0 0 0 0 0 0 0 0 0
0 0 0 0 0 0 0 0 0 0 0 0 0 0 0 0 0 0 0 0 0 0 0 0 0 0 0 0 0 0 0 0 0 0 0 0 0 0 0 0 0 0 0 0 0 0 0 0 0
0 0 0 0 0 0 0 0 0 0 0 0 0 0 0 0 0 0 0 0 1 1 0 1 1 1 1 0 0 0 0 0 0 0 0 0 0 0 0 0 0 0 0 0 0 0 0 0 0
0 0 0 0 0 0 0 0 0 0 0 0 0 0 0 0 0 0 0 0 1 1 1 5 13 19 16 7 2 0 0 0 0 0 0 0 0 0 0 0 0 0 0 0 0 0 0 0 0
0 0 0 0 0 0 0 0 0 0 0 0 0 0 0 0 0 0 0 0 1 1 2 8 22 35 37 30 18 5 0 0 0 0 0 0 0 0 0 0 0 0 0 0 0 1 1 1 1
0 0 0 0 0 0 0 0 0 0 0 0 0 0 0 0 0 0 0 0 0 0 1 4 12 20 31 47 47 29 10 2 0 1 0 0 0 0 0 1 1 1 1 1 1 1 2 3 4
0 0 0 0 0 0 0 0 0 0 0 0 0 0 0 0 0 0 0 0 0 0 0 0 0 2 10 29 49 42 19 5 1 1 0 0 0 1 1 1 2 2 3 2 1 1 2 4 6
0 0 0 0 0 0 0 0 0 0 0 0 0 0 0 0 0 0 0 0 0 0 0 0 0 0 0 7 18 20 11 5 2 0 0 0 0 0 0 1 2 2 2 2 1 0 1 3 4
0 0 0 0 0 0 0 0 0 0 0 0 0 0 0 0 0 0 0 0 0 0 0 0 0 0 0 0 0 0 1 1 1 0 0 0 0 0 0 0 1 1 1 1 0 0 1 1 1
0 0 0 0 0 0 0 0 0 0 0 0 0 0 0 0 0 0 0 0 0 0 0 0 0 0 0 0 0 0 0 0 0 0 0 0 0 0 0 0 0 0 0 0 0 0 0 0 0
0 0 0 0 0 0 0 0 0 0 0 0 0 0 0 0 0 0 0 0 0 0 0 0 0 0 0 0 0 0 0 0 0 0 0 0 0 0 0 0 0 0 0 0 0 0 0 0 0
0 0 0 0 0 0 0 0 0 0 0 0 0 0 0 0 0 0 0 0 0 0 0 0 0 0 0 0 0 0 0 0 0 0 0 0 0 0 0 0 0 0 0 0 0 0 0 0 0
0 0 0 0 0 0 0 0 0 0 0 0 0 0 0 0 0 0 0 0 0 0 0 0 0 0 0 0 0 0 0 0 0 0 0 0 0 0 0 0 0 0 0 0 0 0 0 0 0
0 0 0 0 0 0 0 0 0 0 0 0 0 0 0 0 0 0 0 0 0 0 0 0 0 0 0 0 0 0 0 0 0 0 0 0 0 0 0 0 0 0 0 0 0 0 0 0 0
0 0 0 0 0 0 0 0 0 0 0 0 0 0 0 0 0 0 0 0 0 0 0 0 0 0 0 0 0 0 0 0 0 0 0 0 0 0 0 0 0 0 0 0 0 0 0 0 0
0 0 0 0 0 0 0 0 0 0 0 0 0 0 0 0 0 0 0 0 0 0 0 0 0 0 0 0 0 0 0 0 0 0 0 0 0 0 0 0 0 0 0 0 0 0 0 0 0
0 0 0 0 0 0 0 0 0 0 0 0 0 0 0 0 0 0 0 0 0 0 0 0 0 0 0 0 0 0 0 0 0 0 0 0 0 0 0 0 0 0 0 0 0 0 0 0 0
0 0 0 0 0 0 0 0 0 0 0 0 0 0 0 0 0 0 0 0 0 0 0 0 0 0 0 0 0 0 0 0 0 0 0 0 0 0 0 0 0 0 0 0 0 0 0 0 0
0 0 0 0 0 0 0 0 0 0 0 0 0 0 0 0 0 0 0 0 0 0 0 0 0 0 0 0 0 0 0 0 0 0 0 0 0 0 0 0 0 0 0 0 0 0 0 0 0
0 0 0 0 0 0 0 0 0 0 0 0 0 0 0 0 0 0 0 0 0 0 0 0 0 0 0 0 0 0 0 0 0 0 0 0 0 0 0 0 0 0 0 0 0 0 0 0 0
0 0 0 0 0 0 0 0 0 0 0 0 0 0 0 0 0 0 0 0 0 0 0 0 0 0 0 0 0 0 0 0 0 0 0 0 0 0 0 0 0 0 0 0 0 0 0 0 0
0 0 0 0 0 0 0 0 0 0 0 0 0 0 0 0 0 0 0 0 0 0 0 0 0 0 0 0 0 0 0 0 0 0 0 0 0 0 0 0 0 0 0 0 0 0 0 0 0
0 0 0 0 0 0 0 0 0 0 0 0 0 0 0 0 0 0 0 0 0 0 0 0 0 0 0 0 0 0 0 0 0 0 0 0 0 0 0 0 0 0 0 0 0 0 0 0 0
0 0 0 0 0 0 0 0 0 0 0 0 0 0 0 0 0 0 0 0 0 0 0 0 0 0 0 0 0 0 0 0 0 0 0 0 0 0 0 0 0 0 0 0 0 0 0 0 0
0 0 0 0 0 0 0 0 0 0 0 0 0 0 0 0 0 0 0 0 0 0 0 0 0 0 0 0 0 0 0 0 0 0 0 0 0 0 0 0 0 0 0 0 0 0 0 0 0
0 0 0 0 0 0 0 0 0 0 0 0 0 0 0 0 0 0 0 0 0 0 0 0 0 0 0 0 0 0 0 0 0 0 0 0 0 0 0 0 0 0 0 0 0 0 0 0 0
0 0 0 0 0 0 0 0 0 0 0 0 0 0 0 0 0 0 0 0 0 0 0 0 0 0 0 0 0 0 0 0 0 0 0 0 0 0 0 0 0 0 0 0 0 0 0 0 0
0 0 0 0 0 0 0 0 0 0 0 0 0 0 0 0 0 0 0 0 0 0 0 0 0 0 0 0 0 0 0 0 0 0 0 0 0 0 0 0 0 0 0 0 0 0 0 0 0
0 0 0 0 0 0 0 0 0 0 0 0 0 0 0 0 0 0 0 0 0 0 0 0 0 0 0 0 0 0 0 0 0 0 0 0 0 0 0 0 0 0 0 0 0 0 0 0 0
Wind_Speed
8 4 2 4 6 7 4 2 2 5 4 3 2 6 6 6 4 3 3 3 3 3 2 1 3 2 2 2 2 2 1 2 3 2 1 3 4 3 4 5 6 7 7 7 6 6 6 5 4
5 3 4 5 7 7 4 5 5 5 3 1 4 6 7 6 4 4 5 6 6 5 5 4 2 2 3 3 3 3 3 3 3 3 3 4 5 5 5 5 6 8 10 9 8 8 6 5 5
2 3 5 6 6 4 3 5 4 5 4 4 4 6 7 8 9 8 8 6 8 7 6 5 4 3 4 5 5 5 5 4 4 4 5 6 6 6 7 8 8 9 9 9 9 9 7 6 6
3 4 6 8 7 4 2 5 6 5 7 9 5 6 6 10 10 11 9 6 7 6 5 4 4 4 5 6 6 6 7 5 6 6 6 7 9 9 8 9 10 9 8 7 7 8 8 6 5
5 5 8 7 4 3 3 4 6 8 8 10 7 6 6 12 16 15 13 9 8 8 7 6 8 7 6 6 6 7 7 7 7 7 6 8 11 10 7 8 10 9 6 5 6 6 7 6 6
5 6 7 6 3 4 4 5 5 8 9 11 9 4 6 16 25 20 16 16 16 14 13 13 17 16 12 9 8 8 7 7 7 8 7 10 12 10 8 9 9 7 4 4 5 6 7 6 5
5 6 5 3 2 4 6 6 11 9 15 13 9 5 8 23 25 17 16 18 18 18 17 15 15 17 18 15 11 8 6 6 6 7 10 10 9 6 8 8 8 6 5 5 6 7 7 7 6
4 6 4 2 3 5 7 9 11 16 16 11 14 12 10 19 18 13 16 19 18 18 17 16 15 15 14 14 19 17 11 8 6 5 7 8 7 4 4 5 6 8 8 7 7 8 7 7 7
4 7 3 2 3 6 9 8 9 9 13 19 14 9 8 12 15 21 22 22 21 19 18 17 16 16 14 13 17 20 21 18 12 5 4 5 2 3 3 4 7 8 8 8 9 8 7 6 5
5 5 1 1 5 9 11 12 4 10 17 16 20 18 14 15 21 24 22 21 21 20 18 17 17 16 15 12 12 12 13 14 14 10 6 3 3 4 5 5 8 10 10 9 9 9 8 4 2
3 3 2 5 8 11 10 19 17 10 15 12 12 14 15 18 21 20 18 16 14 15 16 15 14 15 14 12 11 9 9 10 12 15 14 9 5 3 3 2 3 4 5 4 5 5 4 3 3
3 4 5 5 9 12 12 13 24 21 11 5 7 9 15 18 18 17 16 16 16 16 18 16 14 14 13 11 10 10 10 11 10 11 13 11 8 7 5 3 2 2 2 3 3 2 4 5 4
4 5 9 10 22 22 23 19 21 15 8 7 12 17 18 19 17 16 14 16 17 18 18 18 16 15 13 10 9 9 11 11 10 10 12 13 10 10 10 7 5 3 2 2 3 3 4 5 5
5 12 10 9 14 14 21 14 15 9 7 11 15 17 17 17 17 17 18 17 17 16 16 15 15 15 15 12 10 7 8 9 9 10 12 14 11 11 11 10 9 7 4 4 3 4 4 4 4
5 13 10 6 5 11 14 16 10 6 8 13 12 12 15 16 16 16 16 15 15 15 16 16 15 14 14 13 11 9 8 7 7 8 10 12 12 13 12 11 10 9 8 6 4 4 4 4 4
5 4 4 6 5 4 6 6 6 8 10 13 12 11 13 13 14 13 13 13 14 14 14 15 14 15 15 12 11 8 8 7 6 6 7 11 12 12 11 10 10 10 9 7 6 5 3 4 4
7 4 3 4 13 7 11 9 9 8 11 12 10 10 11 12 14 14 13 14 15 14 14 15 15 15 15 12 10 9 9 7 6 5 6 10 11 12 10 9 9 11 8 7 6 7 5 4 5
2 2 3 4 8 15 16 13 9 6 10 9 9 11 13 14 14 13 13 14 15 14 15 15 15 15 14 11 10 10 9 8 7 6 7 11 10 12 10 9 11 11 8 7 7 7 6 5 5
3 3 3 3 3 11 14 13 7 5 10 11 11 11 12 11 10 12 14 14 16 16 16 16 17 17 14 11 12 12 12 10 9 7 9 11 12 13 11 9 10 10 9 10 8 8 8 6 3
3 4 3 3 2 11 13 11 5 4 4 4 6 8 9 12 13 14 16 16 18 18 16 16 15 13 12 11 13 11 10 10 10 9 10 11 13 13 11 11 10 10 10 11 8 8 7 5 4
2 2 3 3 6 9 12 6 2 1 0 2 4 4 6 9 10 12 14 15 18 19 18 15 15 14 13 14 12 11 11 10 9 11 11 13 13 12 12 12 10 10 10 9 9 8 9 8 6
2 1 2 4 6 3 5 2 3 2 3 5 7 8 8 8 9 11 14 15 17 17 16 15 15 13 14 15 14 16 13 13 13 12 12 13 13 12 12 12 12 10 9 8 9 9 8 9 8
4 2 0 3 4 3 2 2 3 2 5 6 7 8 9 8 8 11 12 13 15 14 14 16 16 14 14 14 14 13 12 12 12 12 13 12 12 12 11 11 11 10 9 9 10 10 10 9 9
5 2 2 3 3 1 2 3 2 1 2 6 7 8 10 9 9 11 10 11 13 13 15 16 16 16 14 15 15 14 14 13 13 14 12 11 10 10 12 14 12 12 12 12 11 11 12 11 10
8 7 5 6 4 3 1 0 2 3 4 5 7 8 8 8 8 10 10 13 13 13 16 16 17 17 14 15 15 14 14 13 13 12 11 12 10 10 13 15 14 14 14 14 12 11 12 12 13
4 5 4 3 5 6 2 1 2 4 4 5 7 8 8 8 7 9 9 13 14 13 15 16 16 16 15 15 15 14 13 11 11 12 12 11 10 11 14 15 16 16 16 15 13 11 11 11 12
2 4 2 1 4 5 3 2 1 2 7 8 9 8 7 8 8 8 9 13 14 13 14 16 16 16 15 14 14 13 12 11 12 14 13 10 11 12 14 15 16 16 16 16 14 11 12 11 11
6 4 4 5 6 8 6 2 1 5 8 9 9 9 7 7 8 8 8 11 13 12 12 14 15 15 15 13 12 11 12 12 13 13 13 13 14 15 15 16 17 17 17 16 15 12 11 10 9
3 3 5 2 2 2 8 5 3 2 6 9 11 8 7 8 10 7 8 10 11 11 11 14 14 14 14 14 13 13 13 13 13 13 14 15 15 15 16 16 17 16 16 15 13 13 12 11 6
3 3 3 2 2 2 2 6 2 2 7 8 9 7 6 8 9 6 6 9 10 11 10 12 12 12 13 13 13 13 13 14 14 14 15 15 15 15 16 16 16 16 15 15 14 12 10 8 3
Wind_Direction
341 350 48 48 52 64 51 2 342 346 358 3 84 100 102 68 64 89 319 23 41 73 93 169 190 203 225 244 277 309 344 21 58 75 305 278 274 283 280 274 272 271 266 258 251 246 241 221 194
352 3 45 59 69 64 26 356 4 334 322 335 58 64 61 36 9 6 360 24 47 52 33 16 321 309 308 297 295 292 295 312 336 329 294 291 290 284 286 289 290 284 269 258 251 247 246 231 206
17 50 61 61 67 66 7 340 319 297 342 23 55 52 46 3 352 355 335 37 47 39 25 12 330 317 310 306 306 302 296 284 276 274 271 266 273 286 294 295 296 296 280 268 261 253 250 244 231
48 49 57 67 63 46 10 323 329 344 13 26 45 52 67 48 349 327 327 34 37 19 9 356 322 316 316 315 318 308 293 286 282 279 278 277 266 256 269 288 291 293 291 282 277 262 260 263 254
52 67 61 61 46 359 349 347 350 35 23 4 33 73 58 11 349 349 0 20 18 2 353 345 352 345 342 343 331 319 312 298 285 276 267 279 274 258 240 273 279 268 267 287 294 284 276 270 263
50 65 71 68 23 344 358 357 17 36 22 14 19 56 70 356 1 356 12 26 22 13 5 0 357 356 355 353 343 340 331 307 292 290 275 267 266 256 256 271 273 260 267 294 293 286 282 283 280
73 73 79 86 21 21 4 9 37 38 22 10 348 25 15 0 353 352 19 27 23 18 15 8 0 359 354 346 342 333 323 298 298 314 303 285 290 287 292 278 277 277 280 295 296 294 297 289 281
94 91 79 73 64 49 21 47 44 46 34 16 25 22 359 342 344 1 30 30 26 21 18 12 7 6 0 357 354 351 335 310 283 259 281 288 289 274 294 290 275 276 274 270 280 280 273 281 288
76 72 70 72 68 50 11 56 41 66 59 51 44 39 360 350 11 30 29 25 22 19 17 15 12 11 6 9 4 4 357 350 332 291 296 305 292 291 287 261 260 266 257 256 264 267 266 262 269
72 92 132 78 88 99 50 47 16 56 45 34 28 25 20 24 33 36 30 23 20 17 14 16 15 13 10 9 5 4 3 358 355 355 337 310 296 280 267 256 278 279 264 260 259 258 253 257 263
84 112 142 61 86 107 80 49 38 65 51 21 18 17 21 32 35 36 33 27 22 17 16 15 15 13 12 8 5 5 2 1 1 3 359 344 326 301 287 271 283 288 283 282 275 274 267 248 235
72 58 53 33 69 77 76 74 60 58 66 36 36 35 34 34 31 27 23 17 11 12 11 4 9 9 7 4 4 2 2 1 357 355 0 359 352 344 331 308 289 286 286 289 286 276 281 267 242
52 66 58 73 83 84 83 76 76 55 40 38 42 39 36 34 30 26 23 21 15 10 3 360 1 3 355 355 356 358 359 358 353 356 1 2 358 356 344 334 321 299 287 279 281 284 278 270 263
60 87 97 81 78 76 81 65 72 43 33 42 37 36 33 32 27 22 21 19 16 11 4 357 359 1 353 348 346 350 354 352 354 359 1 1 360 357 351 341 331 319 303 276 260 262 262 262 257
94 92 73 38 97 123 86 52 55 52 39 41 25 22 29 27 23 22 15 9 5 1 355 353 354 357 353 348 343 342 349 351 350 352 355 357 358 355 348 342 337 331 322 299 273 256 247 250 251
43 58 61 19 11 13 81 74 48 55 49 41 22 16 23 21 17 13 11 6 1 358 355 351 349 349 346 344 341 337 340 342 343 343 348 352 353 352 344 336 331 329 323 311 291 271 252 243 231
29 48 37 13 13 36 78 105 64 45 53 42 22 18 19 13 12 5 4 1 358 355 352 349 351 349 345 345 343 333 328 330 328 330 345 345 344 345 339 329 325 324 318 313 301 284 260 249 247
346 30 44 39 34 65 83 93 74 41 47 35 20 17 14 8 1 354 358 357 354 353 353 351 351 350 347 345 343 340 336 329 326 322 338 335 333 335 333 325 326 321 316 313 313 297 279 254 245
166 111 88 86 96 77 89 93 76 48 48 34 21 11 7 355 343 354 356 353 350 351 352 353 349 349 348 353 345 339 334 328 326 321 332 329 331 331 330 329 324 322 315 311 308 303 286 268 233
111 114 107 93 85 108 107 94 77 49 51 38 17 0 354 345 347 354 354 354 354 351 349 352 348 347 351 357 337 330 323 322 325 329 328 331 333 330 331 330 323 321 317 313 317 315 300 273 214
31 115 186 175 91 92 119 100 95 39 338 25 20 350 336 340 338 348 350 356 355 350 346 342 342 347 353 358 339 334 330 328 331 333 333 335 334 336 331 327 326 321 313 312 317 311 307 293 272
324 338 259 168 143 167 185 183 200 244 357 2 356 349 337 332 338 348 351 356 355 344 337 335 339 346 356 355 346 342 343 341 341 336 333 330 330 328 329 328 324 316 310 310 310 312 307 294 282
294 328 187 134 137 117 139 205 228 312 354 338 329 331 330 328 344 347 348 355 347 340 345 346 344 347 357 354 344 340 339 340 336 333 331 327 325 328 328 324 315 308 308 309 307 307 299 290 279
305 23 67 66 87 138 200 237 251 313 301 300 308 321 324 328 342 343 343 351 344 348 354 344 340 342 349 351 341 342 340 339 334 333 332 327 327 328 330 328 323 319 316 310 304 297 291 287 274
10 25 23 6 349 257 177 179 241 210 246 270 293 308 316 327 333 336 342 349 348 355 356 346 339 339 350 352 341 339 341 337 332 330 326 317 322 325 329 329 327 320 312 305 298 292 286 282 269
27 64 71 324 292 301 347 343 267 215 253 287 295 298 315 320 327 332 347 350 348 355 354 347 342 341 347 348 339 337 343 339 334 326 315 309 316 322 325 324 314 309 305 298 292 286 278 275 266
46 58 82 338 314 314 320 348 338 289 294 306 301 306 320 329 330 337 356 355 351 353 353 342 339 337 339 341 335 334 337 337 331 321 313 314 321 320 322 316 311 306 300 292 284 282 276 273 268
73 86 33 23 349 318 307 296 298 313 305 314 314 320 334 333 339 351 3 355 352 348 350 339 336 334 334 337 334 332 330 330 328 324 321 322 324 324 323 319 314 309 304 299 288 279 276 271 268
30 51 73 109 139 268 304 300 201 263 312 316 312 328 345 343 346 353 1 353 346 346 353 342 338 337 338 337 334 333 331 332 331 328 325 324 321 320 321 322 319 321 322 317 306 287 265 258 234
111 110 115 128 262 193 252 278 168 328 314 307 312 338 346 342 337 344 357 347 341 343 351 344 339 338 337 334 333 333 332 332 332 329 326 323 320 320 322 325 327 329 335 343 343 333 312 280 232